Tracking 29892 objects as of 21-Nov-2024
HD Live streaming from Space Station
objects crossing your sky now

COSMOS 2251 DEB

Track COSMOS 2251 DEB now!
10-day predictions


NORAD ID: 35016
Int'l Code: 1993-036AGD
Perigee: 702.6 km
Apogee: 871.3 km
Inclination: 73.9 °
Period: 100.4 minutes
Semi major axis: 7157 km
RCS: 0.0131 m2 (small)
Launch date: June 16, 1993
Source: Commonwealth of Independent States (former USSR) (CIS)
Launch site: PLESETSK MISSILE AND SPACE COMPLEX (PKMTR)

Note: This is SATELLITE DEBRIS
Your satellite tracking list
Your tracking list is empty




NASA's NSSDC Master Catalog

Two Line Element Set (TLE):
1 35016U 93036AGD 24324.25230503  .00002785  00000-0  94024-3 0  9995
2 35016  73.9310 290.5903 0117841 290.2193 131.6517 14.33564514812120
Source of the keplerian elements: AFSPC